Frenchville, ME

9:34 PM EST on November 21, 2017 (GMT -0500)
Northern Aroostook Regional

Weather History for KFVE - October, 2010

Change the Weather History Date:

Sunday, October 3, 2010

  Actual Average Record
Temperature  
Mean Temperature 43 °F 47 °F  
Max Temperature 52 °F 55 °F 78 °F (2005)
Min Temperature 34 °F 38 °F 29 °F (2017)
Degree Days  
Heating Degree Days 22    
Month to date heating degree days 43  
Since 1 July heating degree days 467  
Cooling Degree Days 0    
Month to date cooling degree days 0  
Year to date cooling degree days 268  
Moisture  
Dew Point 35 °F    
Average Humidity 78    
Maximum Humidity 96    
Minimum Humidity 50    
Precipitation  
Precipitation 0.00 in 0.09 in 0.70 in (2011)
Month to date precipitation 1.05 0.25  
Year to date precipitation 27.64 25.83  
Sea Level Pressure  
Sea Level Pressure 30.22 in    
Wind  
Wind Speed 7 mph (NW)    
Max Wind Speed 16 mph    
Max Gust Speed 22 mph    
Visibility 10 miles    
Events      
T = Trace of Precipitation, MM = Missing Value Source: NWS Daily Summary

Daily Weather History Graph

Daily Weather History Graph

Search for Another Location

Airport or City:

Trip Planner

Search our weather history database for the weather conditions in past years. The results will help you decide how hot, cold, wet, or windy it might be!

Date:

Astronomy

Oct. 03, 2010 Rise Set
Actual Time 6:34 AM EDT 6:08 PM EDT
Civil Twilight 6:04 AM EDT 6:39 PM EDT
Nautical Twilight 5:28 AM EDT 7:14 PM EDT
Astronomical Twilight 4:52 AM EDT 7:50 PM EDT
Moon 1:05 AM EDT (10/3) 3:48 PM EDT (10/3)
Length of Visible Light 12h 35m
Length of Day
11h 34m
Waning Crescent, 23% of the Moon is Illuminated
Oct 3
Waning Crescent
Oct 7
New
Oct 14
First Quarter
Oct 22
Full
Oct 30
Last Quarter

Hourly Weather History & Observations

Time (EDT) Temp. Windchill Dew Point Humidity Pressure Visibility Wind Dir Wind Speed Gust Speed Precip Events Conditions
12:53 AM 37.9 °F 33.5 °F 36.0 °F 93% 30.03 in 10.0 mi NW 5.8 mph - N/A   Clear
1:53 AM 39.0 °F 36.8 °F 37.0 °F 93% 30.04 in 10.0 mi WNW 3.5 mph - N/A   Clear
2:53 AM 37.9 °F 34.4 °F 36.0 °F 93% 30.05 in 10.0 mi West 4.6 mph - N/A   Clear
3:53 AM 37.0 °F 32.4 °F 35.1 °F 93% 30.08 in 10.0 mi WNW 5.8 mph - N/A   Clear
4:53 AM 37.0 °F 32.4 °F 35.1 °F 93% 30.11 in 10.0 mi West 5.8 mph - N/A   Clear
5:53 AM 35.1 °F 32.2 °F 34.0 °F 96% 30.13 in 10.0 mi West 3.5 mph - N/A   Clear
6:53 AM 35.1 °F 29.3 °F 34.0 °F 96% 30.16 in 10.0 mi WNW 6.9 mph - N/A   Clear
7:53 AM 39.0 °F 35.7 °F 37.0 °F 93% 30.18 in 10.0 mi WNW 4.6 mph - N/A   Clear
8:37 AM 39.2 °F 37.0 °F 37.4 °F 93% 30.19 in 2.0 mi Variable 3.5 mph - N/A   Clear
8:45 AM 42.8 °F 40.1 °F 39.2 °F 87% 30.19 in 10.0 mi Variable 4.6 mph - N/A   Clear
8:53 AM 43.0 °F 38.8 °F 37.9 °F 82% 30.21 in 10.0 mi NNW 6.9 mph - N/A   Clear
9:36 AM 44.6 °F 38.4 °F 37.4 °F 76% 30.20 in 10.0 mi NNW 12.7 mph - N/A   Mostly Cloudy
9:53 AM 44.1 °F 38.1 °F 37.0 °F 76% 30.22 in 10.0 mi NNW 11.5 mph - N/A   Overcast
10:50 AM 46.4 °F 40.7 °F 35.6 °F 66% 30.22 in 10.0 mi NNW 12.7 mph 18.4 mph N/A   Scattered Clouds
10:53 AM 46.0 °F 39.6 °F 36.0 °F 68% 30.24 in 10.0 mi NW 15.0 mph 19.6 mph N/A   Scattered Clouds
11:53 AM 48.0 °F - 35.1 °F 61% 30.25 in 10.0 mi NW 10.4 mph - N/A   Scattered Clouds
12:53 PM 48.0 °F - 35.1 °F 61% 30.26 in 10.0 mi North 5.8 mph - N/A   Mostly Cloudy
1:53 PM 50.0 °F - 34.0 °F 54% 30.27 in 10.0 mi NNW 10.4 mph - N/A   Scattered Clouds
2:53 PM 50.0 °F - 33.1 °F 52% 30.27 in 10.0 mi NW 6.9 mph - N/A   Mostly Cloudy
3:53 PM 48.9 °F - 33.1 °F 54% 30.28 in 10.0 mi NNW 9.2 mph - N/A   Mostly Cloudy
4:53 PM 50.0 °F - 32.0 °F 50% 30.28 in 10.0 mi NNW 10.4 mph - N/A   Overcast
5:53 PM 45.0 °F 40.6 °F 34.0 °F 65% 30.30 in 10.0 mi North 8.1 mph - N/A   Mostly Cloudy
6:53 PM 43.0 °F 39.5 °F 34.0 °F 71% 30.31 in 10.0 mi North 5.8 mph - N/A   Clear
7:53 PM 39.9 °F 36.7 °F 34.0 °F 79% 30.32 in 10.0 mi NNW 4.6 mph - N/A   Clear
8:53 PM 39.9 °F 36.7 °F 34.0 °F 79% 30.34 in 10.0 mi North 4.6 mph - N/A   Clear
9:53 PM 39.0 °F 35.7 °F 34.0 °F 82% 30.36 in 10.0 mi NNW 4.6 mph - N/A   Clear
10:53 PM 39.0 °F 36.8 °F 35.1 °F 86% 30.37 in 10.0 mi NNW 3.5 mph - N/A   Clear
11:53 PM 35.1 °F 30.1 °F 34.0 °F 96% 30.37 in 10.0 mi NNW 5.8 mph - N/A   Clear